[Date Prev][Date Next][Thread Prev][Thread Next] - [Date Index][Thread Index][Author Index]
2 Line ISS Keps 9-13
- Subject: [sarex] 2 Line ISS Keps 9-13
- From: "Dave Larsen PhD" <doc@xxxxxxxxxxx>
- Date: Mon, 13 Sep 2004 03:22:41 -0700
ISS
1 25544U 98067A 04257.38964897 .00016241 00000-0 13905-3 0 6781
2 25544 51.6343 235.5290 0005565 142.8450 352.9070 15.69593111332178
----
Via the sarex mailing list at AMSAT.ORG courtesy of AMSAT-NA.
To unsubscribe, send "unsubscribe sarex" to Majordomo@amsat.org
AMSAT Home